EN

Hourly Weather Dandeli

Today, 25 November, Wednesday

Time Temperature Precipitation Wind Pressure Humidity
00:00 +22°C° 0 mm 1 mps 717 mmHg 56%
01:00 +20°C° 0 mm 2 mps 716 mmHg 55%
02:00 +20°C° 0 mm 2 mps 716 mmHg 55%
03:00 +20°C° 0 mm 2 mps 716 mmHg 56%
04:00 +19°C° 0 mm 2 mps 716 mmHg 58%
05:00 +19°C° 0 mm 2 mps 716 mmHg 64%
06:00 +21°C° 0 mm 3 mps 716 mmHg 66%
07:00 +22°C° 0 mm 3 mps 717 mmHg 68%
08:00 +24°C° 0 mm 3 mps 718 mmHg 70%
09:00 +26°C° 0 mm 3 mps 718 mmHg 61%
10:00 +28°C° 0 mm 3 mps 718 mmHg 51%
11:00 +30°C° 0 mm 4 mps 718 mmHg 42%
12:00 +30°C° 0 mm 4 mps 717 mmHg 40%
13:00 +31°C° 0 mm 3 mps 716 mmHg 39%
14:00 +33°C° 0 mm 3 mps 716 mmHg 38%
15:00 +30°C° 0 mm 3 mps 716 mmHg 45%
16:00 +29°C° 0 mm 2 mps 715 mmHg 53%
17:00 +27°C° 0 mm 1 mps 715 mmHg 60%
18:00 +26°C° 0 mm 1 mps 716 mmHg 63%
19:00 +25°C° 0 mm 1 mps 716 mmHg 65%
20:00 +24°C° 0 mm 1 mps 716 mmHg 68%
21:00 +23°C° 0 mm 1 mps 716 mmHg 69%
22:00 +23°C° 0 mm 1 mps 716 mmHg 71%
23:00 +23°C° 0 mm 1 mps 716 mmHg 73%

Tomorrow, 26 November, Thursday

Time Temperature Precipitation Wind Pressure Humidity
00:00 +22°C° 0 mm 1 mps 716 mmHg 74%
01:00 +22°C° 0 mm 1 mps 715 mmHg 76%
02:00 +21°C° 0 mm 2 mps 715 mmHg 77%
03:00 +21°C° 0 mm 2 mps 715 mmHg 79%
04:00 +20°C° 0 mm 2 mps 715 mmHg 81%
05:00 +20°C° 0 mm 2 mps 715 mmHg 82%
06:00 +22°C° 0 mm 3 mps 716 mmHg 79%
07:00 +23°C° 0 mm 4 mps 717 mmHg 76%
08:00 +25°C° 0 mm 5 mps 718 mmHg 73%
09:00 +27°C° 0 mm 5 mps 718 mmHg 68%
10:00 +28°C° 0 mm 5 mps 717 mmHg 64%
11:00 +30°C° 0 mm 5 mps 717 mmHg 60%
12:00 +30°C° 0 mm 4 mps 717 mmHg 59%
13:00 +30°C° 0 mm 4 mps 716 mmHg 59%
14:00 +30°C° 0 mm 4 mps 715 mmHg 59%
15:00 +29°C° 0.2 mm 3 mps 715 mmHg 65%
16:00 +28°C° 0.2 mm 3 mps 715 mmHg 70%
17:00 +27°C° 0.2 mm 3 mps 715 mmHg 76%
18:00 +26°C° 0.2 mm 3 mps 716 mmHg 80%
19:00 +24°C° 0.2 mm 2 mps 717 mmHg 85%
20:00 +23°C° 0.2 mm 2 mps 717 mmHg 89%
21:00 +22°C° 0 mm 3 mps 717 mmHg 88%
22:00 +22°C° 0 mm 3 mps 717 mmHg 87%
23:00 +22°C° 0 mm 3 mps 717 mmHg 86%

Day after tomorrow, 27 November, Friday

Time Temperature Precipitation Wind Pressure Humidity
00:00 +22°C° 0 mm 3 mps 717 mmHg 86%
01:00 +21°C° 0 mm 4 mps 717 mmHg 86%
02:00 +21°C° 0 mm 4 mps 716 mmHg 87%
03:00 +21°C° 0 mm 4 mps 716 mmHg 87%
04:00 +21°C° 0 mm 4 mps 716 mmHg 87%
05:00 +21°C° 0 mm 4 mps 716 mmHg 87%
06:00 +21°C° 0 mm 4 mps 717 mmHg 84%
07:00 +22°C° 0 mm 5 mps 718 mmHg 81%
08:00 +23°C° 0 mm 6 mps 719 mmHg 78%
09:00 +24°C° 0 mm 6 mps 718 mmHg 73%
10:00 +26°C° 0 mm 6 mps 718 mmHg 69%
11:00 +28°C° 0 mm 6 mps 718 mmHg 65%
12:00 +28°C° 0 mm 6 mps 718 mmHg 64%
13:00 +28°C° 0 mm 6 mps 717 mmHg 64%
14:00 +28°C° 0 mm 6 mps 716 mmHg 63%
15:00 +27°C° 0 mm 5 mps 717 mmHg 65%
16:00 +27°C° 0 mm 4 mps 717 mmHg 68%
17:00 +26°C° 0 mm 4 mps 717 mmHg 70%
18:00 +25°C° 0 mm 4 mps 717 mmHg 73%
19:00 +23°C° 0 mm 4 mps 718 mmHg 77%
20:00 +22°C° 0 mm 5 mps 718 mmHg 80%
21:00 +22°C° 0 mm 5 mps 718 mmHg 80%
22:00 +22°C° 0 mm 5 mps 718 mmHg 81%
23:00 +22°C° 0 mm 6 mps 718 mmHg 81%

28 November, Saturday

Time Temperature Precipitation Wind Pressure Humidity
00:00 +22°C° 0.1 mm 6 mps 718 mmHg 83%
01:00 +22°C° 0.1 mm 6 mps 717 mmHg 84%
02:00 +22°C° 0.1 mm 6 mps 717 mmHg 85%
03:00 +22°C° 0 mm 6 mps 717 mmHg 85%
04:00 +22°C° 0 mm 5 mps 717 mmHg 85%
05:00 +22°C° 0 mm 5 mps 717 mmHg 84%
06:00 +22°C° 0 mm 5 mps 718 mmHg 83%
07:00 +23°C° 0 mm 5 mps 718 mmHg 81%
08:00 +23°C° 0 mm 5 mps 719 mmHg 80%
09:00 +25°C° 0 mm 5 mps 719 mmHg 75%
10:00 +27°C° 0 mm 5 mps 719 mmHg 70%
11:00 +28°C° 0 mm 5 mps 719 mmHg 65%
12:00 +28°C° 0 mm 5 mps 718 mmHg 65%
13:00 +28°C° 0 mm 5 mps 717 mmHg 66%
14:00 +28°C° 0 mm 5 mps 717 mmHg 66%
15:00 +27°C° 0 mm 4 mps 717 mmHg 69%
16:00 +26°C° 0 mm 4 mps 717 mmHg 72%
17:00 +26°C° 0 mm 3 mps 717 mmHg 75%
18:00 +25°C° 0 mm 4 mps 718 mmHg 78%
19:00 +23°C° 0 mm 4 mps 718 mmHg 81%
20:00 +23°C° 0 mm 4 mps 719 mmHg 83%
21:00 +22°C° 0 mm 4 mps 719 mmHg 84%
22:00 +22°C° 0 mm 4 mps 719 mmHg 85%
23:00 +22°C° 0 mm 3 mps 719 mmHg 86%

29 November, Sunday

Time Temperature Precipitation Wind Pressure Humidity
00:00 +22°C° 0 mm 4 mps 718 mmHg 84%
01:00 +22°C° 0 mm 4 mps 718 mmHg 82%
02:00 +23°C° 0 mm 4 mps 718 mmHg 81%
03:00 +22°C° 0 mm 4 mps 718 mmHg 82%
04:00 +22°C° 0 mm 4 mps 718 mmHg 83%
05:00 +22°C° 0 mm 4 mps 718 mmHg 84%
06:00 +23°C° 0 mm 4 mps 718 mmHg 82%
07:00 +23°C° 0 mm 4 mps 719 mmHg 79%
08:00 +25°C° 0 mm 5 mps 719 mmHg 77%
09:00 +26°C° 0 mm 5 mps 719 mmHg 71%
10:00 +28°C° 0 mm 5 mps 719 mmHg 65%
11:00 +30°C° 0 mm 5 mps 719 mmHg 58%
12:00 +30°C° 0 mm 5 mps 718 mmHg 56%
13:00 +32°C° 0 mm 5 mps 717 mmHg 53%
14:00 +33°C° 0 mm 5 mps 717 mmHg 50%
15:00 +32°C° 0 mm 4 mps 717 mmHg 55%
16:00 +29°C° 0 mm 3 mps 717 mmHg 60%
17:00 +28°C° 0 mm 2 mps 717 mmHg 64%
18:00 +27°C° 0 mm 2 mps 717 mmHg 67%
19:00 +26°C° 0 mm 2 mps 718 mmHg 69%
20:00 +25°C° 0 mm 2 mps 718 mmHg 71%
21:00 +24°C° 0 mm 2 mps 718 mmHg 72%
22:00 +24°C° 0 mm 2 mps 718 mmHg 72%
23:00 +23°C° 0 mm 2 mps 718 mmHg 73%

30 November, Monday

Time Temperature Precipitation Wind Pressure Humidity
00:00 +23°C° 0 mm 2 mps 718 mmHg 74%
01:00 +23°C° 0 mm 2 mps 717 mmHg 76%
02:00 +21°C° 0 mm 3 mps 717 mmHg 78%
03:00 +21°C° 0 mm 3 mps 717 mmHg 80%
04:00 +21°C° 0 mm 3 mps 717 mmHg 82%
05:00 +20°C° 0 mm 3 mps 717 mmHg 84%
06:00 +21°C° 0 mm 3 mps 717 mmHg 79%
07:00 +22°C° 0 mm 4 mps 718 mmHg 74%
08:00 +23°C° 0 mm 4 mps 718 mmHg 68%
09:00 +26°C° 0 mm 4 mps 719 mmHg 61%
10:00 +28°C° 0 mm 4 mps 719 mmHg 54%
11:00 +30°C° 0 mm 5 mps 719 mmHg 47%
12:00 +30°C° 0 mm 4 mps 718 mmHg 45%
13:00 +32°C° 0 mm 4 mps 718 mmHg 43%
14:00 +32°C° 0 mm 4 mps 717 mmHg 41%
15:00 +30°C° 0 mm 3 mps 717 mmHg 45%
16:00 +29°C° 0 mm 3 mps 717 mmHg 50%
17:00 +27°C° 0 mm 2 mps 717 mmHg 55%
18:00 +26°C° 0 mm 2 mps 717 mmHg 56%
19:00 +25°C° 0 mm 2 mps 718 mmHg 58%
20:00 +23°C° 0 mm 2 mps 718 mmHg 59%
21:00 +23°C° 0 mm 2 mps 718 mmHg 60%
22:00 +23°C° 0 mm 2 mps 718 mmHg 61%
23:00 +21°C° 0 mm 2 mps 718 mmHg 63%
Show more